ONEWEB-0613, 56071

Orbit data source: Space-Track

ONEWEB-0613, 56071 is a payload satellite owned by One Web (NAA) (UK) in LEO that was launched on Sun, 26 Mar 2023 UTC via a LVM3 launch vehicle from the Sirharikota (SRI). Payload-class satellites include a variety of spacecraft equipped with specific instruments for various scientific and technological missions. These include communications satellites like Starlink; space stations such as the ISS; scientific satellites like the Hubble; Earth observation satellites from companies like Planet Labs, Umbra, and HawkEye 360; GPS; miniature CubeSats for education and research; and military/defense satellites.

Loading next visibility...
Identifier
56071, 2023-043AB
Orbit
LEO
Country
Flag of UKUK
Related business
Manufacturer
One Web
Mission
Operational Commercial Communications
Bus & Motor
ARROW, Unknown motor
Mass
148 kg wet, ~140 kg dry
Launch date (UTC)
2023-03-26 (2 years ago)
Launch vehicle
LVM3
Launch site
Sirharikota (SRI)
Object type
Payload
Rocket body
Debris
Shape & HBR
Trap Box + 2 Pan, 2.5 m
Radar Cross Section
2.032 m², Large (>1 m²)

Expand to show TLE details & history
Last TLE update: 14 hours ago

TLE from 14 hours ago
0 ONEWEB-0613
1 56071U 23043AB  25250.24574193  .00000119  00000-0  28318-3 0  9996
2 56071  87.9051 315.6858 0001711  92.1613 267.9713 13.15549040119232
Epoch: 2025-09-07T05:53Z
TLE epoch observation values (Epoch: 2025-09-07T05:53:52.102Z)
Latitude
-0.00006°
Longitude
-119.34927°
Altitude
1,204.71 km
Speed
7.252 km/s
True Right ascension
21h 02m 44s
True Declination
0° 00' 00"
Sunlit
Object was in full shadow at epoch
Visualization orbit readout
Latitude
Unknown
Longitude
Unknown
Altitude
Unknown
Speed
Unknown
Apparent Right ascension
Unknown
Apparent Declination
Unknown
Sunlit
N/A
Visualization observer readout
Local Sidereal Time
11:48:11
Azimuth
Unknown
Elevation
Unknown
Doppler factor
Unknown
Orbital elements
Apogee altitude
1,200.177 km
Perigee altitude
1,197.584 km
Semi-major axis
7,577.018 km
Eccentricity
0.00017
Inclination
87.9051°
RAAN
315.6858°
Arg. of periapsis
92.1613°
True anomaly
267.95171°
Mean anomaly
267.9713°
Eccentric anomaly
267.9615°
Mean motion
3.29076 °/min
Orbital period
109.4 mins
BSTAR
0.00028318
Loading maneuver chart data...
Computing Atmospheric mass density...
Loading historical data...
Loading historical data...
Loading historical data...
Loading historical data...
Loading historical data...
Loading historical data...
Loading historical data...

Documentation

Showing up to 5 results
|